Time,TemperatureF,DewpointF,PressureIn,WindDirection,WindDirectionDegrees,WindSpeedMPH,WindSpeedGustMPH,Humidity,HourlyPrecipIn,Conditions,Clouds,dailyrainin,SoftwareType,DateUTC
2013-03-25 00:05:00,29.7,26.0,29.70,South,178,0.0,0.0,87,0.00,,,0.00,vanprod,2013-03-25 04:05:00,
2013-03-25 00:15:00,29.4,26.0,29.70,South,178,0.0,0.0,87,0.00,,,0.00,vanprod,2013-03-25 04:15:00,
2013-03-25 00:25:00,29.3,26.0,29.70,South,176,0.0,0.0,88,0.00,,,0.00,vanprod,2013-03-25 04:25:00,
2013-03-25 00:35:00,29.1,26.0,29.70,South,179,0.0,0.0,88,0.00,,,0.00,vanprod,2013-03-25 04:35:00,
2013-03-25 00:45:00,29.0,26.0,29.70,South,178,0.0,0.0,88,0.00,,,0.00,vanprod,2013-03-25 04:45:00,
2013-03-25 00:55:00,28.8,26.0,29.70,South,178,0.0,0.0,88,0.00,,,0.00,vanprod,2013-03-25 04:55:00,
2013-03-25 01:05:00,28.7,26.0,29.69,South,178,0.0,0.0,88,0.00,,,0.00,vanprod,2013-03-25 05:05:00,
2013-03-25 01:15:00,28.5,26.0,29.69,South,178,0.0,0.0,89,0.00,,,0.00,vanprod,2013-03-25 05:15:00,
2013-03-25 01:25:00,28.4,26.0,29.69,South,178,0.0,0.0,89,0.00,,,0.00,vanprod,2013-03-25 05:25:00,
2013-03-25 01:35:00,28.2,25.0,29.69,South,178,0.0,0.0,89,0.00,,,0.00,vanprod,2013-03-25 05:35:00,
2013-03-25 01:45:00,28.1,25.0,29.69,South,178,0.0,0.0,89,0.00,,,0.00,vanprod,2013-03-25 05:45:00,
2013-03-25 01:55:00,27.9,25.0,29.69,South,178,0.0,0.0,88,0.00,,,0.00,vanprod,2013-03-25 05:55:00,
2013-03-25 02:05:00,27.8,25.0,29.69,South,179,0.0,0.0,88,0.00,,,0.00,vanprod,2013-03-25 06:05:00,
2013-03-25 02:15:00,27.8,25.0,29.69,South,178,0.0,0.0,89,0.00,,,0.00,vanprod,2013-03-25 06:15:00,
2013-03-25 02:25:00,27.6,24.0,29.69,South,178,0.0,0.0,88,0.00,,,0.00,vanprod,2013-03-25 06:25:00,
2013-03-25 02:35:00,27.5,24.0,29.68,South,176,0.0,0.0,88,0.00,,,0.00,vanprod,2013-03-25 06:35:00,
2013-03-25 02:45:00,27.2,24.0,29.68,South,178,0.0,0.0,87,0.00,,,0.00,vanprod,2013-03-25 06:45:00,
2013-03-25 02:55:00,27.2,24.0,29.68,South,178,0.0,0.0,87,0.00,,,0.00,vanprod,2013-03-25 06:55:00,
2013-03-25 03:05:00,27.0,24.0,29.68,South,178,0.0,0.0,87,0.00,,,0.00,vanprod,2013-03-25 07:05:00,
2013-03-25 03:15:00,27.0,24.0,29.68,South,181,0.0,0.0,88,0.00,,,0.00,vanprod,2013-03-25 07:15:00,
2013-03-25 03:25:00,26.9,24.0,29.68,South,178,0.0,0.0,87,0.00,,,0.00,vanprod,2013-03-25 07:25:00,
2013-03-25 03:35:00,26.7,23.0,29.68,South,178,0.0,0.0,87,0.00,,,0.00,vanprod,2013-03-25 07:35:00,
2013-03-25 03:45:00,26.7,23.0,29.68,South,178,0.0,0.0,87,0.00,,,0.00,vanprod,2013-03-25 07:45:00,
2013-03-25 03:55:00,26.7,23.0,29.68,South,178,0.0,0.0,87,0.00,,,0.00,vanprod,2013-03-25 07:55:00,
2013-03-25 04:05:00,26.7,23.0,29.67,South,179,0.0,0.0,87,0.00,,,0.00,vanprod,2013-03-25 08:05:00,
2013-03-25 04:15:00,26.6,23.0,29.67,South,178,0.0,0.0,88,0.00,,,0.00,vanprod,2013-03-25 08:15:00,
2013-03-25 04:25:00,26.4,23.0,29.67,South,178,0.0,0.0,88,0.00,,,0.00,vanprod,2013-03-25 08:25:00,
2013-03-25 04:35:00,26.4,23.0,29.66,South,178,0.0,0.0,88,0.00,,,0.00,vanprod,2013-03-25 08:35:00,
2013-03-25 04:45:00,26.3,23.0,29.65,South,179,0.0,0.0,88,0.00,,,0.00,vanprod,2013-03-25 08:45:00,
2013-03-25 04:55:00,26.3,23.0,29.65,South,178,0.0,0.0,88,0.00,,,0.00,vanprod,2013-03-25 08:55:00,
2013-03-25 05:05:00,26.3,23.0,29.65,South,179,0.0,0.0,88,0.00,,,0.00,vanprod,2013-03-25 09:05:00,
2013-03-25 05:15:00,26.3,23.0,29.65,South,178,0.0,0.0,88,0.00,,,0.00,vanprod,2013-03-25 09:15:00,
2013-03-25 05:25:00,26.4,23.0,29.65,South,178,0.0,0.0,88,0.00,,,0.00,vanprod,2013-03-25 09:25:00,
2013-03-25 05:35:00,26.4,23.0,29.65,South,178,0.0,0.0,88,0.00,,,0.00,vanprod,2013-03-25 09:35:00,
2013-03-25 05:45:00,26.4,23.0,29.65,South,178,0.0,0.0,88,0.00,,,0.00,vanprod,2013-03-25 09:45:00,
2013-03-25 05:55:00,26.4,23.0,29.65,South,178,0.0,0.0,88,0.00,,,0.00,vanprod,2013-03-25 09:55:00,
2013-03-25 06:05:00,26.4,23.0,29.65,South,178,0.0,0.0,88,0.00,,,0.00,vanprod,2013-03-25 10:05:00,
2013-03-25 06:15:00,26.3,23.0,29.65,South,178,0.0,0.0,88,0.00,,,0.00,vanprod,2013-03-25 10:15:00,
2013-03-25 06:25:00,26.3,23.0,29.65,South,178,0.0,0.0,89,0.00,,,0.00,vanprod,2013-03-25 10:25:00,
2013-03-25 06:35:00,26.3,23.0,29.64,South,179,0.0,0.0,89,0.00,,,0.00,vanprod,2013-03-25 10:35:00,
2013-03-25 06:45:00,26.3,23.0,29.64,South,178,0.0,0.0,89,0.00,,,0.00,vanprod,2013-03-25 10:45:00,
2013-03-25 06:55:00,26.4,24.0,29.64,South,176,0.0,0.0,89,0.00,,,0.00,vanprod,2013-03-25 10:55:00,
2013-03-25 07:05:00,26.6,24.0,29.64,North,3,0.0,0.0,89,0.00,,,0.00,vanprod,2013-03-25 11:05:00,
2013-03-25 07:15:00,27.0,24.0,29.64,North,359,1.0,1.0,89,0.00,,,0.00,vanprod,2013-03-25 11:15:00,
2013-03-25 07:25:00,27.5,24.0,29.64,NNE,21,1.0,0.0,88,0.00,,,0.00,vanprod,2013-03-25 11:25:00,
2013-03-25 07:35:00,28.1,25.0,29.64,NNE,20,2.0,3.0,88,0.00,,,0.00,vanprod,2013-03-25 11:35:00,
2013-03-25 07:45:00,29.1,25.0,29.64,North,356,2.0,0.0,86,0.00,,,0.00,vanprod,2013-03-25 11:45:00,
2013-03-25 07:55:00,30.0,26.0,29.64,North,0,1.0,3.0,85,0.00,,,0.00,vanprod,2013-03-25 11:55:00,
2013-03-25 08:05:00,30.9,26.0,29.65,North,0,2.0,2.0,82,0.00,,,0.00,vanprod,2013-03-25 12:05:00,
2013-03-25 08:15:00,31.8,26.0,29.65,North,0,1.0,0.0,80,0.00,,,0.00,vanprod,2013-03-25 12:15:00,
2013-03-25 08:25:00,32.2,27.0,29.65,NNW,337,1.0,3.0,80,0.00,,,0.00,vanprod,2013-03-25 12:25:00,
2013-03-25 08:35:00,33.2,27.0,29.66,NNE,20,1.0,4.0,78,0.00,,,0.00,vanprod,2013-03-25 12:35:00,
2013-03-25 08:45:00,33.8,27.0,29.66,North,10,1.0,3.0,77,0.00,,,0.00,vanprod,2013-03-25 12:45:00,
2013-03-25 08:55:00,34.3,28.0,29.66,NNW,346,1.0,2.0,76,0.00,,,0.00,vanprod,2013-03-25 12:55:00,
2013-03-25 09:05:00,34.7,28.0,29.66,North,359,1.0,2.0,76,0.00,,,0.00,vanprod,2013-03-25 13:05:00,
2013-03-25 09:15:00,35.2,28.0,29.65,NE,35,2.0,8.0,75,0.00,,,0.00,vanprod,2013-03-25 13:15:00,
2013-03-25 09:25:00,35.8,29.0,29.65,NE,41,1.0,2.0,75,0.00,,,0.00,vanprod,2013-03-25 13:25:00,
2013-03-25 09:35:00,36.5,29.0,29.65,NNE,13,1.0,1.0,74,0.00,,,0.00,vanprod,2013-03-25 13:35:00,
2013-03-25 09:45:00,37.2,29.0,29.65,North,11,1.0,2.0,73,0.00,,,0.00,vanprod,2013-03-25 13:45:00,
2013-03-25 09:55:00,37.9,30.0,29.65,North,11,1.0,4.0,73,0.00,,,0.00,vanprod,2013-03-25 13:55:00,
2013-03-25 10:05:00,38.3,30.0,29.65,ENE,76,2.0,6.0,71,0.00,,,0.00,vanprod,2013-03-25 14:05:00,
2013-03-25 10:15:00,38.6,30.0,29.64,NW,305,3.0,3.0,71,0.00,,,0.00,vanprod,2013-03-25 14:15:00,
2013-03-25 10:25:00,38.9,30.0,29.64,NE,55,3.0,3.0,71,0.00,,,0.00,vanprod,2013-03-25 14:25:00,
2013-03-25 10:35:00,39.3,30.0,29.64,ENE,65,4.0,4.0,70,0.00,,,0.00,vanprod,2013-03-25 14:35:00,
2013-03-25 10:45:00,39.8,31.0,29.63,East,79,3.0,3.0,69,0.00,,,0.01,vanprod,2013-03-25 14:45:00,
2013-03-25 10:55:00,40.3,31.0,29.63,North,0,4.0,4.0,69,0.00,,,0.01,vanprod,2013-03-25 14:55:00,
2013-03-25 11:05:00,40.8,31.0,29.62,SE,136,3.0,5.0,67,0.00,,,0.01,vanprod,2013-03-25 15:05:00,
2013-03-25 11:15:00,41.1,31.0,29.62,ENE,71,4.0,4.0,66,0.00,,,0.01,vanprod,2013-03-25 15:15:00,
2013-03-25 11:25:00,41.5,31.0,29.62,North,10,3.0,3.0,65,0.00,,,0.01,vanprod,2013-03-25 15:25:00,
2013-03-25 11:35:00,42.1,31.0,29.61,NE,55,3.0,0.0,65,0.00,,,0.01,vanprod,2013-03-25 15:35:00,
2013-03-25 11:45:00,42.5,32.0,29.60,ENE,76,4.0,5.0,65,0.00,,,0.01,vanprod,2013-03-25 15:45:00,
2013-03-25 11:55:00,42.6,31.0,29.60,NE,45,5.0,10.0,63,0.00,,,0.02,vanprod,2013-03-25 15:55:00,
2013-03-25 12:05:00,42.5,32.0,29.60,East,88,6.0,6.0,65,0.00,,,0.02,vanprod,2013-03-25 16:05:00,
2013-03-25 12:15:00,42.3,31.0,29.60,NNE,23,5.0,5.0,65,0.00,,,0.02,vanprod,2013-03-25 16:15:00,
2013-03-25 12:25:00,42.2,32.0,29.60,ENE,61,5.0,13.0,66,0.00,,,0.02,vanprod,2013-03-25 16:25:00,
2013-03-25 12:35:00,42.1,31.0,29.59,ESE,103,7.0,8.0,65,0.00,,,0.02,vanprod,2013-03-25 16:35:00,
2013-03-25 12:45:00,41.9,32.0,29.59,ENE,76,5.0,5.0,68,0.00,,,0.02,vanprod,2013-03-25 16:45:00,
2013-03-25 12:55:00,42.3,32.0,29.59,NE,55,3.0,3.0,67,0.00,,,0.02,vanprod,2013-03-25 16:55:00,
2013-03-25 13:05:00,42.3,32.0,29.59,NE,51,4.0,6.0,67,0.00,,,0.02,vanprod,2013-03-25 17:05:00,
2013-03-25 13:15:00,42.6,32.0,29.59,North,7,5.0,6.0,66,0.00,,,0.02,vanprod,2013-03-25 17:15:00,
2013-03-25 13:25:00,43.1,33.0,29.59,NE,45,5.0,7.0,66,0.00,,,0.02,vanprod,2013-03-25 17:25:00,
2013-03-25 13:35:00,42.8,33.0,29.59,NE,37,4.0,6.0,67,0.00,,,0.02,vanprod,2013-03-25 17:35:00,
2013-03-25 13:45:00,42.5,32.0,29.59,NE,42,4.0,4.0,67,0.00,,,0.02,vanprod,2013-03-25 17:45:00,
2013-03-25 13:55:00,42.2,33.0,29.59,ENE,58,6.0,6.0,69,0.00,,,0.02,vanprod,2013-03-25 17:55:00,
2013-03-25 14:05:00,42.6,33.0,29.58,ENE,61,5.0,5.0,68,0.00,,,0.02,vanprod,2013-03-25 18:05:00,
2013-03-25 14:15:00,42.2,32.0,29.57,East,99,6.0,6.0,68,0.00,,,0.02,vanprod,2013-03-25 18:15:00,
2013-03-25 14:25:00,41.6,33.0,29.57,ESE,113,7.0,7.0,70,0.00,,,0.02,vanprod,2013-03-25 18:25:00,
2013-03-25 14:35:00,41.6,32.0,29.57,ENE,73,5.0,5.0,69,0.00,,,0.02,vanprod,2013-03-25 18:35:00,
2013-03-25 14:45:00,41.3,32.0,29.57,NE,52,5.0,5.0,70,0.00,,,0.02,vanprod,2013-03-25 18:45:00,
2013-03-25 14:55:00,41.2,33.0,29.57,East,88,3.0,3.0,71,0.00,,,0.02,vanprod,2013-03-25 18:55:00,
2013-03-25 15:05:00,40.9,32.0,29.56,East,95,5.0,6.0,71,0.00,,,0.02,vanprod,2013-03-25 19:05:00,
2013-03-25 15:15:00,40.9,32.0,29.55,ENE,69,4.0,6.0,71,0.00,,,0.02,vanprod,2013-03-25 19:15:00,
2013-03-25 15:25:00,40.9,32.0,29.55,East,80,4.0,4.0,71,0.00,,,0.02,vanprod,2013-03-25 19:25:00,
2013-03-25 15:35:00,40.9,33.0,29.54,NE,49,4.0,5.0,72,0.00,,,0.02,vanprod,2013-03-25 19:35:00,
2013-03-25 15:45:00,40.8,33.0,29.53,ENE,69,6.0,10.0,72,0.00,,,0.02,vanprod,2013-03-25 19:45:00,
2013-03-25 15:55:00,40.5,33.0,29.53,ENE,59,7.0,10.0,73,0.00,,,0.02,vanprod,2013-03-25 19:55:00,
2013-03-25 16:05:00,40.5,33.0,29.52,NE,52,4.0,6.0,73,0.00,,,0.02,vanprod,2013-03-25 20:05:00,
2013-03-25 16:15:00,40.2,32.0,29.50,NE,55,5.0,5.0,72,0.00,,,0.02,vanprod,2013-03-25 20:15:00,
2013-03-25 16:25:00,40.2,32.0,29.50,ENE,69,5.0,5.0,71,0.00,,,0.02,vanprod,2013-03-25 20:25:00,
2013-03-25 16:35:00,40.3,32.0,29.50,NE,38,4.0,5.0,71,0.00,,,0.02,vanprod,2013-03-25 20:35:00,
2013-03-25 16:45:00,40.5,32.0,29.50,ESE,106,5.0,5.0,70,0.00,,,0.02,vanprod,2013-03-25 20:45:00,
2013-03-25 16:55:00,40.6,32.0,29.50,NE,54,3.0,6.0,70,0.00,,,0.02,vanprod,2013-03-25 20:55:00,
2013-03-25 17:05:00,40.6,32.0,29.50,ESE,116,4.0,6.0,70,0.00,,,0.02,vanprod,2013-03-25 21:05:00,
2013-03-25 17:15:00,40.5,32.0,29.50,South,189,6.0,6.0,70,0.00,,,0.02,vanprod,2013-03-25 21:15:00,
2013-03-25 17:25:00,40.3,32.0,29.50,NNE,20,5.0,5.0,71,0.00,,,0.02,vanprod,2013-03-25 21:25:00,
2013-03-25 17:35:00,39.9,32.0,29.50,ENE,66,6.0,8.0,72,0.00,,,0.02,vanprod,2013-03-25 21:35:00,
2013-03-25 17:45:00,39.5,31.0,29.50,NE,54,4.0,6.0,72,0.00,,,0.02,vanprod,2013-03-25 21:45:00,
2013-03-25 17:55:00,39.2,31.0,29.50,NNE,28,4.0,5.0,72,0.00,,,0.02,vanprod,2013-03-25 21:55:00,
2013-03-25 18:05:00,39.2,31.0,29.50,East,86,4.0,6.0,72,0.00,,,0.02,vanprod,2013-03-25 22:05:00,
2013-03-25 18:15:00,39.2,31.0,29.50,ENE,61,3.0,3.0,72,0.00,,,0.02,vanprod,2013-03-25 22:15:00,
2013-03-25 18:25:00,38.9,30.0,29.50,NE,42,5.0,5.0,71,0.00,,,0.02,vanprod,2013-03-25 22:25:00,
2013-03-25 18:35:00,38.6,30.0,29.50,ENE,73,4.0,6.0,71,0.00,,,0.02,vanprod,2013-03-25 22:35:00,
2013-03-25 18:45:00,38.5,31.0,29.51,East,90,3.0,6.0,73,0.00,,,0.02,vanprod,2013-03-25 22:45:00,
2013-03-25 18:55:00,38.2,31.0,29.51,NNW,333,3.0,0.0,75,0.00,,,0.02,vanprod,2013-03-25 22:55:00,
2013-03-25 19:05:00,37.9,31.0,29.51,ENE,64,2.0,2.0,77,0.00,,,0.02,vanprod,2013-03-25 23:05:00,
2013-03-25 19:15:00,37.6,31.0,29.51,NE,51,2.0,2.0,78,0.00,,,0.02,vanprod,2013-03-25 23:15:00,
2013-03-25 19:25:00,37.5,32.0,29.51,North,350,2.0,2.0,79,0.00,,,0.02,vanprod,2013-03-25 23:25:00,
2013-03-25 19:35:00,37.2,31.0,29.50,NNW,347,1.0,1.0,79,0.00,,,0.02,vanprod,2013-03-25 23:35:00,
2013-03-25 19:45:00,37.2,31.0,29.50,North,359,2.0,3.0,79,0.00,,,0.02,vanprod,2013-03-25 23:45:00,
2013-03-25 19:55:00,37.2,32.0,29.50,NNE,13,2.0,2.0,80,0.00,,,0.02,vanprod,2013-03-25 23:55:00,
2013-03-25 20:05:00,37.0,31.0,29.50,ENE,69,1.0,0.0,79,0.00,,,0.02,vanprod,2013-03-26 00:05:00,
2013-03-25 20:15:00,37.0,31.0,29.50,ENE,62,1.0,0.0,80,0.00,,,0.02,vanprod,2013-03-26 00:15:00,
2013-03-25 20:25:00,37.0,31.0,29.50,NNE,20,2.0,0.0,79,0.00,,,0.02,vanprod,2013-03-26 00:25:00,
2013-03-25 20:35:00,36.9,31.0,29.51,NE,37,0.0,0.0,80,0.00,,,0.02,vanprod,2013-03-26 00:35:00,
2013-03-25 20:45:00,36.8,31.0,29.51,NE,44,1.0,2.0,80,0.00,,,0.02,vanprod,2013-03-26 00:45:00,
2013-03-25 20:55:00,36.6,31.0,29.51,North,4,1.0,1.0,80,0.00,,,0.02,vanprod,2013-03-26 00:55:00,
2013-03-25 21:05:00,36.6,31.0,29.51,North,6,1.0,3.0,80,0.00,,,0.02,vanprod,2013-03-26 01:05:00,
2013-03-25 21:15:00,36.6,31.0,29.51,NNW,347,1.0,1.0,80,0.00,,,0.02,vanprod,2013-03-26 01:15:00,
2013-03-25 21:25:00,36.5,30.0,29.51,NNE,17,1.0,0.0,78,0.00,,,0.02,vanprod,2013-03-26 01:25:00,
2013-03-25 21:35:00,36.5,30.0,29.51,NE,47,1.0,7.0,78,0.00,,,0.02,vanprod,2013-03-26 01:35:00,
2013-03-25 21:45:00,36.5,30.0,29.50,NE,34,2.0,0.0,77,0.00,,,0.02,vanprod,2013-03-26 01:45:00,
2013-03-25 21:55:00,36.3,30.0,29.50,NE,51,0.0,0.0,77,0.00,,,0.02,vanprod,2013-03-26 01:55:00,
2013-03-25 22:05:00,36.3,30.0,29.50,NE,42,1.0,0.0,76,0.00,,,0.02,vanprod,2013-03-26 02:05:00,
2013-03-25 22:15:00,36.3,30.0,29.50,NE,51,1.0,2.0,76,0.00,,,0.02,vanprod,2013-03-26 02:15:00,
2013-03-25 22:25:00,36.2,29.0,29.50,North,1,1.0,1.0,76,0.00,,,0.02,vanprod,2013-03-26 02:25:00,
2013-03-25 22:35:00,36.2,29.0,29.49,NNW,347,1.0,1.0,75,0.00,,,0.02,vanprod,2013-03-26 02:35:00,
2013-03-25 22:45:00,36.2,29.0,29.49,North,0,1.0,0.0,75,0.00,,,0.02,vanprod,2013-03-26 02:45:00,
2013-03-25 22:55:00,36.2,29.0,29.49,NNE,16,1.0,3.0,75,0.00,,,0.02,vanprod,2013-03-26 02:55:00,
2013-03-25 23:05:00,36.2,29.0,29.48,NNW,344,1.0,0.0,75,0.00,,,0.02,vanprod,2013-03-26 03:05:00,
2013-03-25 23:15:00,36.2,29.0,29.49,North,0,1.0,0.0,74,0.00,,,0.02,vanprod,2013-03-26 03:15:00,
2013-03-25 23:25:00,36.0,29.0,29.49,NNE,18,1.0,0.0,74,0.00,,,0.02,vanprod,2013-03-26 03:25:00,
2013-03-25 23:35:00,36.0,28.0,29.49,NNW,343,1.0,0.0,73,0.00,,,0.02,vanprod,2013-03-26 03:35:00,
2013-03-25 23:45:00,36.0,28.0,29.49,North,359,1.0,0.0,73,0.00,,,0.02,vanprod,2013-03-26 03:45:00,
2013-03-25 23:55:00,36.2,28.0,29.49,NE,51,2.0,0.0,72,0.00,,,0.02,vanprod,2013-03-26 03:55:00,